Year,Month,Day,Hour,Minute,Value (Times are PST for temperature in C)
2016,09,12,02,59,12.50
2016,09,12,03,00,12.50
2016,09,12,03,01,12.40
2016,09,12,03,02,12.40
2016,09,12,03,03,12.30
2016,09,12,03,04,12.30
2016,09,12,03,05,12.30
2016,09,12,03,06,12.20
2016,09,12,03,07,12.20
2016,09,12,03,08,12.20
2016,09,12,03,09,12.20
2016,09,12,03,10,12.20
2016,09,12,03,11,12.10
2016,09,12,03,12,12.10
2016,09,12,03,13,12.10
2016,09,12,03,14,12.10
2016,09,12,03,15,12.00
2016,09,12,03,16,12.00
2016,09,12,03,17,11.90
2016,09,12,03,18,11.90
2016,09,12,03,19,11.80
2016,09,12,03,20,11.80
2016,09,12,03,21,11.80
2016,09,12,03,22,11.80
2016,09,12,03,23,11.70
2016,09,12,03,24,11.70
2016,09,12,03,25,11.70
2016,09,12,03,26,11.70
2016,09,12,03,27,11.70
2016,09,12,03,28,11.70
2016,09,12,03,29,11.70
2016,09,12,03,30,11.60
2016,09,12,03,31,11.60
2016,09,12,03,32,11.60
2016,09,12,03,33,11.60
2016,09,12,03,34,11.50
2016,09,12,03,35,11.60
2016,09,12,03,36,11.60
2016,09,12,03,37,11.60
2016,09,12,03,38,11.70
2016,09,12,03,39,11.70
2016,09,12,03,40,11.80
2016,09,12,03,41,11.80
2016,09,12,03,42,11.80
2016,09,12,03,43,11.80
2016,09,12,03,44,11.80
2016,09,12,03,45,11.80
2016,09,12,03,46,11.80
2016,09,12,03,47,11.80
2016,09,12,03,48,11.80
2016,09,12,03,49,11.90
2016,09,12,03,50,11.90
2016,09,12,03,51,11.90
2016,09,12,03,52,11.90
2016,09,12,03,53,11.90
2016,09,12,03,54,11.90
2016,09,12,03,55,11.90
2016,09,12,03,56,11.90
2016,09,12,03,57,11.90
2016,09,12,03,58,11.90
2016,09,12,03,59,11.80
2016,09,12,04,00,11.80
2016,09,12,04,01,11.80
2016,09,12,04,02,11.70
2016,09,12,04,03,11.70
2016,09,12,04,04,11.60
2016,09,12,04,05,11.50
2016,09,12,04,06,11.50
2016,09,12,04,07,11.50
2016,09,12,04,08,11.40
2016,09,12,04,09,11.40
2016,09,12,04,10,11.30
2016,09,12,04,11,11.30
2016,09,12,04,12,11.30
2016,09,12,04,13,11.30
2016,09,12,04,14,11.30
2016,09,12,04,15,11.20
2016,09,12,04,16,11.20
2016,09,12,04,17,11.20
2016,09,12,04,18,11.20
2016,09,12,04,19,11.10
2016,09,12,04,20,11.10
2016,09,12,04,21,11.00
2016,09,12,04,22,11.00
2016,09,12,04,23,10.90
2016,09,12,04,24,10.90
2016,09,12,04,25,10.90
2016,09,12,04,26,10.90
2016,09,12,04,27,11.00
2016,09,12,04,28,11.00
2016,09,12,04,29,11.00
2016,09,12,04,30,11.10
2016,09,12,04,31,11.20
2016,09,12,04,32,11.30
2016,09,12,04,33,11.30
2016,09,12,04,34,11.40
2016,09,12,04,35,11.60
2016,09,12,04,36,11.60
2016,09,12,04,37,11.80
2016,09,12,04,38,11.80
2016,09,12,04,39,11.80
2016,09,12,04,40,12.00
2016,09,12,04,41,12.00
2016,09,12,04,42,12.10
2016,09,12,04,43,12.20
2016,09,12,04,44,12.20
2016,09,12,04,45,12.30
2016,09,12,04,46,12.30
2016,09,12,04,47,12.30
2016,09,12,04,48,12.40
2016,09,12,04,49,12.40
2016,09,12,04,50,12.40
2016,09,12,04,51,12.40
2016,09,12,04,52,12.40
2016,09,12,04,53,12.40
2016,09,12,04,54,12.40
2016,09,12,04,55,12.50
2016,09,12,04,56,12.50
2016,09,12,04,57,12.50
2016,09,12,04,58,12.60
2016,09,12,04,59,12.60
2016,09,12,05,00,12.60
2016,09,12,05,01,12.50
2016,09,12,05,02,12.50
2016,09,12,05,03,12.50
2016,09,12,05,04,12.40
2016,09,12,05,05,12.40
2016,09,12,05,06,12.30
2016,09,12,05,07,12.20
2016,09,12,05,08,12.20
2016,09,12,05,09,12.20
2016,09,12,05,10,12.00
2016,09,12,05,11,11.90
2016,09,12,05,12,11.80
2016,09,12,05,13,11.80
2016,09,12,05,14,11.70
2016,09,12,05,15,11.60
2016,09,12,05,16,11.50
2016,09,12,05,17,11.40
2016,09,12,05,18,11.40
2016,09,12,05,19,11.30
2016,09,12,05,20,11.30
2016,09,12,05,21,11.30
2016,09,12,05,22,11.30
2016,09,12,05,23,11.30
2016,09,12,05,24,11.20
2016,09,12,05,25,11.20
2016,09,12,05,26,11.20
2016,09,12,05,27,11.10
2016,09,12,05,28,11.10
2016,09,12,05,29,11.10
2016,09,12,05,30,11.00
2016,09,12,05,31,10.90
2016,09,12,05,32,10.90
2016,09,12,05,33,10.90
2016,09,12,05,34,10.90
2016,09,12,05,35,10.90
2016,09,12,05,36,10.80
2016,09,12,05,37,10.80
2016,09,12,05,38,10.80
2016,09,12,05,39,10.80
2016,09,12,05,40,10.80
2016,09,12,05,41,10.80
2016,09,12,05,42,10.80
2016,09,12,05,43,10.80
2016,09,12,05,44,10.80
2016,09,12,05,45,10.70
2016,09,12,05,46,10.70
2016,09,12,05,47,10.70
2016,09,12,05,48,10.70
2016,09,12,05,49,10.70
2016,09,12,05,50,10.70
2016,09,12,05,51,10.70
2016,09,12,05,52,10.70
2016,09,12,05,53,10.70
2016,09,12,05,54,10.60
2016,09,12,05,55,10.60
2016,09,12,05,56,10.60
2016,09,12,05,57,10.50
2016,09,12,05,58,10.50
2016,09,12,05,59,10.50
2016,09,12,06,00,10.40
2016,09,12,06,01,10.40
2016,09,12,06,02,10.40
2016,09,12,06,03,10.40
2016,09,12,06,04,10.30
2016,09,12,06,05,10.30
2016,09,12,06,06,10.30
2016,09,12,06,07,10.30
2016,09,12,06,08,10.30
2016,09,12,06,09,10.30
2016,09,12,06,10,10.30
2016,09,12,06,11,10.30
2016,09,12,06,12,10.30
2016,09,12,06,13,10.20
2016,09,12,06,14,10.20
2016,09,12,06,15,10.20
2016,09,12,06,16,10.20
2016,09,12,06,17,10.20
2016,09,12,06,18,10.20
2016,09,12,06,19,10.20
2016,09,12,06,20,10.20
2016,09,12,06,21,10.10
2016,09,12,06,22,10.10
2016,09,12,06,23,10.10
2016,09,12,06,24,10.10
2016,09,12,06,25,10.00
2016,09,12,06,26,10.00
2016,09,12,06,27,9.90
2016,09,12,06,28,9.90
2016,09,12,06,29,9.80
2016,09,12,06,30,9.80
2016,09,12,06,31,9.80
2016,09,12,06,32,9.80
2016,09,12,06,33,9.70
2016,09,12,06,34,9.70
2016,09,12,06,35,9.70
2016,09,12,06,36,9.60
2016,09,12,06,37,9.60
2016,09,12,06,38,9.60
2016,09,12,06,39,9.60
2016,09,12,06,40,9.60
2016,09,12,06,41,9.60
2016,09,12,06,42,9.60
2016,09,12,06,43,9.60
2016,09,12,06,44,9.60
2016,09,12,06,45,9.60
2016,09,12,06,46,9.60
2016,09,12,06,47,9.60
2016,09,12,06,48,9.60
2016,09,12,06,49,9.60
2016,09,12,06,50,9.70
2016,09,12,06,51,9.80
2016,09,12,06,52,9.90
2016,09,12,06,53,10.00
2016,09,12,06,54,10.10
2016,09,12,06,55,10.10
2016,09,12,06,56,10.10
2016,09,12,06,57,10.30
2016,09,12,06,58,10.40
2016,09,12,06,59,10.50
2016,09,12,07,00,10.60
2016,09,12,07,01,10.60
2016,09,12,07,02,10.60
2016,09,12,07,03,10.70
2016,09,12,07,04,10.70
2016,09,12,07,05,10.70
2016,09,12,07,06,10.80
2016,09,12,07,07,10.80
2016,09,12,07,08,10.90
2016,09,12,07,09,10.90
2016,09,12,07,10,10.90
2016,09,12,07,11,10.90
2016,09,12,07,12,10.80
2016,09,12,07,13,10.80
2016,09,12,07,14,10.80
2016,09,12,07,15,10.80
2016,09,12,07,16,10.80
2016,09,12,07,17,10.90
2016,09,12,07,18,10.90
2016,09,12,07,19,10.90
2016,09,12,07,20,11.00
2016,09,12,07,21,11.10
2016,09,12,07,22,11.10
2016,09,12,07,23,11.10
2016,09,12,07,24,11.20
2016,09,12,07,25,11.30
2016,09,12,07,26,11.40
2016,09,12,07,27,11.50
2016,09,12,07,28,11.60
2016,09,12,07,29,11.70
2016,09,12,07,30,11.80
2016,09,12,07,31,11.90
2016,09,12,07,32,12.00
2016,09,12,07,33,12.10
2016,09,12,07,34,12.20
2016,09,12,07,35,12.30
2016,09,12,07,36,12.40
2016,09,12,07,37,12.40
2016,09,12,07,38,12.60
2016,09,12,07,39,12.70
2016,09,12,07,40,12.80
2016,09,12,07,41,12.80
2016,09,12,07,42,13.00
2016,09,12,07,43,13.00
2016,09,12,07,44,13.10
2016,09,12,07,45,13.10
2016,09,12,07,46,13.20
2016,09,12,07,47,13.20
2016,09,12,07,48,13.20
2016,09,12,07,49,13.20
2016,09,12,07,50,13.30
2016,09,12,07,51,13.30
2016,09,12,07,52,13.30
2016,09,12,07,53,13.30
2016,09,12,07,54,13.20
2016,09,12,07,55,13.20
2016,09,12,07,56,13.00
2016,09,12,07,57,13.00
2016,09,12,07,58,12.90
2016,09,12,07,59,12.90
2016,09,12,08,00,12.80
2016,09,12,08,01,12.80
2016,09,12,08,02,12.80
2016,09,12,08,03,12.80
2016,09,12,08,04,12.80
2016,09,12,08,05,12.80
2016,09,12,08,06,12.80
2016,09,12,08,07,12.80
2016,09,12,08,08,13.00
2016,09,12,08,09,13.10
2016,09,12,08,10,13.10
2016,09,12,08,11,13.30
2016,09,12,08,12,13.40
2016,09,12,08,13,13.50
2016,09,12,08,14,13.60
2016,09,12,08,15,13.80
2016,09,12,08,16,13.80
2016,09,12,08,17,14.00
2016,09,12,08,18,14.20
2016,09,12,08,19,14.30
2016,09,12,08,20,14.40
2016,09,12,08,21,14.50
2016,09,12,08,22,14.60
2016,09,12,08,23,14.70
2016,09,12,08,24,14.80
2016,09,12,08,25,14.90
2016,09,12,08,26,15.00
2016,09,12,08,27,15.10
2016,09,12,08,28,15.20
2016,09,12,08,29,15.20
2016,09,12,08,30,15.30
2016,09,12,08,31,15.40
2016,09,12,08,32,15.50
2016,09,12,08,33,15.50
2016,09,12,08,34,15.60
2016,09,12,08,35,15.70
2016,09,12,08,36,15.80
2016,09,12,08,37,15.90
2016,09,12,08,38,16.00
2016,09,12,08,39,16.10
2016,09,12,08,40,16.20
2016,09,12,08,41,16.20
2016,09,12,08,42,16.30
2016,09,12,08,43,16.30
2016,09,12,08,44,16.30
2016,09,12,08,45,16.40
2016,09,12,08,46,16.50
2016,09,12,08,47,16.50
2016,09,12,08,48,16.60
2016,09,12,08,49,16.60
2016,09,12,08,50,16.50
2016,09,12,08,51,16.50
2016,09,12,08,52,16.50
2016,09,12,08,53,16.50
2016,09,12,08,54,16.50
2016,09,12,08,55,16.50
2016,09,12,08,56,16.50
2016,09,12,08,57,16.60
2016,09,12,08,58,16.60
2016,09,12,08,59,16.80
2016,09,12,09,00,16.80
2016,09,12,09,01,16.80
2016,09,12,09,02,17.00
2016,09,12,09,03,17.10
2016,09,12,09,04,17.10
2016,09,12,09,05,17.20
2016,09,12,09,06,17.20
2016,09,12,09,07,17.20
2016,09,12,09,08,17.30
2016,09,12,09,09,17.30
2016,09,12,09,10,17.30
2016,09,12,09,11,17.40
2016,09,12,09,12,17.30
2016,09,12,09,13,17.30
2016,09,12,09,14,17.30
2016,09,12,09,15,17.30
2016,09,12,09,16,17.30
2016,09,12,09,17,17.30
2016,09,12,09,18,17.30
2016,09,12,09,19,17.30
2016,09,12,09,20,17.40
2016,09,12,09,21,17.40
2016,09,12,09,22,17.40
2016,09,12,09,23,17.40
2016,09,12,09,24,17.50
2016,09,12,09,25,17.50
2016,09,12,09,26,17.50
2016,09,12,09,27,17.50
2016,09,12,09,28,17.50
2016,09,12,09,29,17.60
2016,09,12,09,30,17.60
2016,09,12,09,31,17.60
2016,09,12,09,32,17.70
2016,09,12,09,33,17.70
2016,09,12,09,34,17.80
2016,09,12,09,35,17.90
2016,09,12,09,36,17.90
2016,09,12,09,37,18.00
2016,09,12,09,38,18.00
2016,09,12,09,39,18.00
2016,09,12,09,40,18.00
2016,09,12,09,41,18.00
2016,09,12,09,42,18.00
2016,09,12,09,43,18.10
2016,09,12,09,44,18.10
2016,09,12,09,45,18.20
2016,09,12,09,46,18.20
2016,09,12,09,47,18.20
2016,09,12,09,48,18.20
2016,09,12,09,49,18.20
2016,09,12,09,50,18.20
2016,09,12,09,51,18.20
2016,09,12,09,52,18.30
2016,09,12,09,53,18.30
2016,09,12,09,54,18.30
2016,09,12,09,55,18.30
2016,09,12,09,56,18.30
2016,09,12,09,57,18.30
2016,09,12,09,58,18.40
2016,09,12,09,59,18.50
2016,09,12,10,00,18.50
2016,09,12,10,01,18.60
2016,09,12,10,02,18.60
2016,09,12,10,03,18.70
2016,09,12,10,04,18.70
2016,09,12,10,05,18.70
2016,09,12,10,06,18.80
2016,09,12,10,07,18.80
2016,09,12,10,08,18.90
2016,09,12,10,09,18.90
2016,09,12,10,10,18.90
2016,09,12,10,11,18.90
2016,09,12,10,12,18.80
2016,09,12,10,13,18.80
2016,09,12,10,14,18.80
2016,09,12,10,15,18.80
2016,09,12,10,16,18.90
2016,09,12,10,17,18.90
2016,09,12,10,18,18.90
2016,09,12,10,19,19.00
2016,09,12,10,20,19.00
2016,09,12,10,21,19.00
2016,09,12,10,22,18.90
2016,09,12,10,23,18.90
2016,09,12,10,24,18.90
2016,09,12,10,25,19.00
2016,09,12,10,26,19.00
2016,09,12,10,27,19.00
2016,09,12,10,28,19.00
2016,09,12,10,29,18.90
2016,09,12,10,30,18.90
2016,09,12,10,31,18.80
2016,09,12,10,32,18.80
2016,09,12,10,33,18.80
2016,09,12,10,34,18.80
2016,09,12,10,35,18.90
2016,09,12,10,36,18.90
2016,09,12,10,37,19.00
2016,09,12,10,38,19.00
2016,09,12,10,39,18.90
2016,09,12,10,40,19.00
2016,09,12,10,41,19.00
2016,09,12,10,42,19.00
2016,09,12,10,43,19.10
2016,09,12,10,44,19.10
2016,09,12,10,45,19.10
2016,09,12,10,46,19.20
2016,09,12,10,47,19.20
2016,09,12,10,48,19.30
2016,09,12,10,49,19.30
2016,09,12,10,50,19.30
2016,09,12,10,51,19.40
2016,09,12,10,52,19.40
2016,09,12,10,53,19.40
2016,09,12,10,54,19.40
2016,09,12,10,55,19.40
2016,09,12,10,56,19.50
2016,09,12,10,57,19.60
2016,09,12,10,58,19.60
2016,09,12,10,59,19.60
2016,09,12,11,00,19.60
2016,09,12,11,01,19.60
2016,09,12,11,02,19.70
2016,09,12,11,03,19.70
2016,09,12,11,04,19.70
2016,09,12,11,05,19.70
2016,09,12,11,06,19.70
2016,09,12,11,07,19.70
2016,09,12,11,08,19.70
2016,09,12,11,09,19.70
2016,09,12,11,10,19.70
2016,09,12,11,11,19.70
2016,09,12,11,12,19.80
2016,09,12,11,13,19.80
2016,09,12,11,14,19.80
2016,09,12,11,15,19.70
2016,09,12,11,16,19.70
2016,09,12,11,17,19.70
2016,09,12,11,18,19.60
2016,09,12,11,19,19.60
2016,09,12,11,20,19.70
2016,09,12,11,21,19.70
2016,09,12,11,22,19.80
2016,09,12,11,23,19.80
2016,09,12,11,24,19.80
2016,09,12,11,25,19.70
2016,09,12,11,26,19.80
2016,09,12,11,27,19.80
2016,09,12,11,28,19.80
2016,09,12,11,29,19.80
2016,09,12,11,30,19.80
2016,09,12,11,31,19.90
2016,09,12,11,32,19.90
2016,09,12,11,33,19.90
2016,09,12,11,34,19.90
2016,09,12,11,35,20.00
2016,09,12,11,36,20.00
2016,09,12,11,37,20.00
2016,09,12,11,38,20.10
2016,09,12,11,39,20.10
2016,09,12,11,40,20.10
2016,09,12,11,41,20.20
2016,09,12,11,42,20.30
2016,09,12,11,43,20.30
2016,09,12,11,44,20.30
2016,09,12,11,45,20.40
2016,09,12,11,46,20.40
2016,09,12,11,47,20.40
2016,09,12,11,48,20.40
2016,09,12,11,49,20.40
2016,09,12,11,50,20.40
2016,09,12,11,51,20.40
2016,09,12,11,52,20.40
2016,09,12,11,53,20.40
2016,09,12,11,54,20.40
2016,09,12,11,55,20.30
2016,09,12,11,56,20.20
2016,09,12,11,57,20.10
2016,09,12,11,58,20.10
2016,09,12,11,59,20.10
2016,09,12,12,00,20.20
2016,09,12,12,01,20.20
2016,09,12,12,02,20.20
2016,09,12,12,03,20.30
2016,09,12,12,04,20.30
2016,09,12,12,05,20.30
2016,09,12,12,06,20.30
2016,09,12,12,07,20.40
2016,09,12,12,08,20.40
2016,09,12,12,09,20.40
2016,09,12,12,10,20.40
2016,09,12,12,11,20.40
2016,09,12,12,12,20.60
2016,09,12,12,13,20.60
2016,09,12,12,14,20.60
2016,09,12,12,15,20.60
2016,09,12,12,16,20.60
2016,09,12,12,17,20.60
2016,09,12,12,18,20.70
2016,09,12,12,19,20.70
2016,09,12,12,20,20.70
2016,09,12,12,21,20.70
2016,09,12,12,22,20.70
2016,09,12,12,23,20.80
2016,09,12,12,24,20.90
2016,09,12,12,25,20.90
2016,09,12,12,26,21.00
2016,09,12,12,27,21.00
2016,09,12,12,28,21.00
2016,09,12,12,29,21.00
2016,09,12,12,30,20.90
2016,09,12,12,31,20.90
2016,09,12,12,32,20.80
2016,09,12,12,33,20.80
2016,09,12,12,34,20.90
2016,09,12,12,35,20.90
2016,09,12,12,36,20.90
2016,09,12,12,37,20.90
2016,09,12,12,38,20.90
2016,09,12,12,39,20.90
2016,09,12,12,40,20.90
2016,09,12,12,41,20.80
2016,09,12,12,42,20.70
2016,09,12,12,43,20.70
2016,09,12,12,44,20.80
2016,09,12,12,45,20.80
2016,09,12,12,46,20.90
2016,09,12,12,47,21.00
2016,09,12,12,48,21.10
2016,09,12,12,49,21.20
2016,09,12,12,50,21.30
2016,09,12,12,51,21.30
2016,09,12,12,52,21.30
2016,09,12,12,53,21.30
2016,09,12,12,54,21.30
2016,09,12,12,55,21.40
2016,09,12,12,56,21.40
2016,09,12,12,57,21.30
2016,09,12,12,58,21.30
2016,09,12,12,59,21.30
2016,09,12,13,00,21.30
2016,09,12,13,01,21.30
2016,09,12,13,02,21.30
2016,09,12,13,03,21.30
2016,09,12,13,04,21.30
2016,09,12,13,05,21.20
2016,09,12,13,06,21.20
2016,09,12,13,07,21.20
2016,09,12,13,08,21.20
2016,09,12,13,09,21.20
2016,09,12,13,10,21.20
2016,09,12,13,11,21.20
2016,09,12,13,12,21.20
2016,09,12,13,13,21.20
2016,09,12,13,14,21.20
2016,09,12,13,15,21.20
2016,09,12,13,16,21.20
2016,09,12,13,17,21.20
2016,09,12,13,18,21.20
2016,09,12,13,19,21.20
2016,09,12,13,20,21.20
2016,09,12,13,21,21.20
2016,09,12,13,22,21.30
2016,09,12,13,23,21.40
2016,09,12,13,24,21.50
2016,09,12,13,25,21.50
2016,09,12,13,26,21.50
2016,09,12,13,27,21.50
2016,09,12,13,28,21.60
2016,09,12,13,29,21.60
2016,09,12,13,30,21.70
2016,09,12,13,31,21.80
2016,09,12,13,32,21.80
2016,09,12,13,33,21.70
2016,09,12,13,34,21.70
2016,09,12,13,35,21.60
2016,09,12,13,36,21.60
2016,09,12,13,37,21.50
2016,09,12,13,38,21.50
2016,09,12,13,39,21.40
2016,09,12,13,40,21.50
2016,09,12,13,41,21.50
2016,09,12,13,42,21.50
2016,09,12,13,43,21.50
2016,09,12,13,44,21.60
2016,09,12,13,45,21.60
2016,09,12,13,46,21.60
2016,09,12,13,47,21.60
2016,09,12,13,48,21.60
2016,09,12,13,49,21.60
2016,09,12,13,50,21.60
2016,09,12,13,51,21.60
2016,09,12,13,52,21.60
2016,09,12,13,53,21.70
2016,09,12,13,54,21.70
2016,09,12,13,55,21.70
2016,09,12,13,56,21.70
2016,09,12,13,57,21.60
2016,09,12,13,58,21.60
2016,09,12,13,59,21.60
2016,09,12,14,00,21.70
2016,09,12,14,01,21.70
2016,09,12,14,02,21.80
2016,09,12,14,03,21.90
2016,09,12,14,04,21.90
2016,09,12,14,05,22.00
2016,09,12,14,06,22.00
2016,09,12,14,07,22.00
2016,09,12,14,08,21.90
2016,09,12,14,09,21.90
2016,09,12,14,10,21.80
2016,09,12,14,11,21.80
2016,09,12,14,12,21.70
2016,09,12,14,13,21.70
2016,09,12,14,14,21.80
2016,09,12,14,15,21.80
2016,09,12,14,16,21.80
2016,09,12,14,17,21.80
2016,09,12,14,18,21.80
2016,09,12,14,19,21.70
2016,09,12,14,20,21.70
2016,09,12,14,21,21.70
2016,09,12,14,22,21.70
2016,09,12,14,23,21.80
2016,09,12,14,24,21.80
2016,09,12,14,25,21.80
2016,09,12,14,26,21.90
2016,09,12,14,27,21.90
2016,09,12,14,28,21.90
2016,09,12,14,29,21.90
2016,09,12,14,30,21.90
2016,09,12,14,31,21.90
2016,09,12,14,32,21.90
2016,09,12,14,33,22.00
2016,09,12,14,34,22.00
2016,09,12,14,35,22.10
2016,09,12,14,36,22.10
2016,09,12,14,37,22.10
2016,09,12,14,38,22.10
2016,09,12,14,39,22.20
2016,09,12,14,40,22.20
2016,09,12,14,41,22.20
2016,09,12,14,42,22.20
2016,09,12,14,43,22.20
2016,09,12,14,44,22.30
2016,09,12,14,45,22.40
2016,09,12,14,46,22.40
2016,09,12,14,47,22.40
2016,09,12,14,48,22.40
2016,09,12,14,49,22.30
2016,09,12,14,50,22.30
2016,09,12,14,51,22.40
2016,09,12,14,52,22.40
2016,09,12,14,53,22.40
2016,09,12,14,54,22.50
2016,09,12,14,55,22.50
2016,09,12,14,56,22.50
2016,09,12,14,57,22.50
2016,09,12,14,58,22.50
2016,09,12,14,59,22.50
2016,09,12,15,00,22.50
2016,09,12,15,01,22.60
2016,09,12,15,02,22.60
2016,09,12,15,03,22.60
2016,09,12,15,04,22.60
2016,09,12,15,05,22.60
2016,09,12,15,06,22.60
2016,09,12,15,07,22.60
2016,09,12,15,08,22.60
2016,09,12,15,09,22.60
2016,09,12,15,10,22.60
2016,09,12,15,11,22.60
2016,09,12,15,12,22.50
2016,09,12,15,13,22.50
2016,09,12,15,14,22.60
2016,09,12,15,15,22.60
2016,09,12,15,16,22.60
2016,09,12,15,17,22.50
2016,09,12,15,18,22.50
2016,09,12,15,19,22.50
2016,09,12,15,20,22.50
2016,09,12,15,21,22.50
2016,09,12,15,22,22.60
2016,09,12,15,23,22.60
2016,09,12,15,24,22.60
2016,09,12,15,25,22.60
2016,09,12,15,26,22.60
2016,09,12,15,27,22.60
2016,09,12,15,28,22.60
2016,09,12,15,29,22.60
2016,09,12,15,30,22.60
2016,09,12,15,31,22.70
2016,09,12,15,32,22.70
2016,09,12,15,33,22.80
2016,09,12,15,34,22.80
2016,09,12,15,35,22.80
2016,09,12,15,36,22.80
2016,09,12,15,37,22.80
2016,09,12,15,38,22.70
2016,09,12,15,39,22.80
2016,09,12,15,40,22.80
2016,09,12,15,41,22.70
2016,09,12,15,42,22.80
2016,09,12,15,43,22.80
2016,09,12,15,44,22.80
2016,09,12,15,45,22.80
2016,09,12,15,46,22.80
2016,09,12,15,47,22.80
2016,09,12,15,48,22.90
2016,09,12,15,49,22.90
2016,09,12,15,50,22.80
2016,09,12,15,51,22.80
2016,09,12,15,52,22.80
2016,09,12,15,53,22.80
2016,09,12,15,54,22.90
2016,09,12,15,55,22.90
2016,09,12,15,56,22.90
2016,09,12,15,57,22.80
2016,09,12,15,58,22.80
2016,09,12,15,59,22.80
2016,09,12,16,00,22.80
2016,09,12,16,01,22.90
2016,09,12,16,02,22.90
2016,09,12,16,03,22.90
2016,09,12,16,04,22.90
2016,09,12,16,05,22.90
2016,09,12,16,06,22.80
2016,09,12,16,07,22.90
2016,09,12,16,08,22.90
2016,09,12,16,09,22.90
2016,09,12,16,10,23.00
2016,09,12,16,11,23.10
2016,09,12,16,12,23.10
2016,09,12,16,13,23.10
2016,09,12,16,14,23.10
2016,09,12,16,15,23.10
2016,09,12,16,16,23.10
2016,09,12,16,17,23.00
2016,09,12,16,18,23.00
2016,09,12,16,19,23.00
2016,09,12,16,20,23.00
2016,09,12,16,21,23.00
2016,09,12,16,22,23.00
2016,09,12,16,23,23.00
2016,09,12,16,24,23.10
2016,09,12,16,25,23.10
2016,09,12,16,26,23.10
2016,09,12,16,27,23.00
2016,09,12,16,28,22.90
2016,09,12,16,29,22.90
2016,09,12,16,30,22.90
2016,09,12,16,31,22.90
2016,09,12,16,32,22.90
2016,09,12,16,33,22.90
2016,09,12,16,34,22.90
2016,09,12,16,35,22.90
2016,09,12,16,36,23.00
2016,09,12,16,37,23.00
2016,09,12,16,38,23.00
2016,09,12,16,39,23.10
2016,09,12,16,40,23.10
2016,09,12,16,41,23.10
2016,09,12,16,42,23.10
2016,09,12,16,43,23.10
2016,09,12,16,44,23.10
2016,09,12,16,45,23.10
2016,09,12,16,46,23.10
2016,09,12,16,47,23.10
2016,09,12,16,48,23.10
2016,09,12,16,49,23.10
2016,09,12,16,50,23.10
2016,09,12,16,51,23.10
2016,09,12,16,52,23.10
2016,09,12,16,53,23.10
2016,09,12,16,54,23.10
2016,09,12,16,55,23.20
2016,09,12,16,56,23.20
2016,09,12,16,57,23.30
2016,09,12,16,58,23.30
2016,09,12,16,59,23.40
2016,09,12,17,00,23.40
2016,09,12,17,01,23.40
2016,09,12,17,02,23.40
2016,09,12,17,03,23.40
2016,09,12,17,04,23.40
2016,09,12,17,05,23.30
2016,09,12,17,06,23.20
2016,09,12,17,07,23.20
2016,09,12,17,08,23.20
2016,09,12,17,09,23.20
2016,09,12,17,10,23.20
2016,09,12,17,11,23.20
2016,09,12,17,12,23.20
2016,09,12,17,13,23.20
2016,09,12,17,14,23.20
2016,09,12,17,15,23.20
2016,09,12,17,16,23.20
2016,09,12,17,17,23.20
2016,09,12,17,18,23.20
2016,09,12,17,19,23.20
2016,09,12,17,20,23.30
2016,09,12,17,21,23.30
2016,09,12,17,22,23.30
2016,09,12,17,23,23.30
2016,09,12,17,24,23.30
2016,09,12,17,25,23.40
2016,09,12,17,26,23.40
2016,09,12,17,27,23.40
2016,09,12,17,28,23.40
2016,09,12,17,29,23.40
2016,09,12,17,30,23.40
2016,09,12,17,31,23.40
2016,09,12,17,32,23.40
2016,09,12,17,33,23.40
2016,09,12,17,34,23.40
2016,09,12,17,35,23.40
2016,09,12,17,36,23.40
2016,09,12,17,37,23.50
2016,09,12,17,38,23.50
2016,09,12,17,39,23.50
2016,09,12,17,40,23.50
2016,09,12,17,41,23.50
2016,09,12,17,42,23.50
2016,09,12,17,43,23.50
2016,09,12,17,44,23.40
2016,09,12,17,45,23.40
2016,09,12,17,46,23.40
2016,09,12,17,47,23.40
2016,09,12,17,48,23.40
2016,09,12,17,49,23.40
2016,09,12,17,50,23.30
2016,09,12,17,51,23.30
2016,09,12,17,52,23.20
2016,09,12,17,53,23.20
2016,09,12,17,54,23.20
2016,09,12,17,55,23.20
2016,09,12,17,56,23.20
2016,09,12,17,57,23.20
2016,09,12,17,58,23.20
2016,09,12,17,59,23.10
2016,09,12,18,00,23.10
2016,09,12,18,01,23.10
2016,09,12,18,02,23.10
2016,09,12,18,03,23.10
2016,09,12,18,04,23.10
2016,09,12,18,05,23.00
2016,09,12,18,06,23.00
2016,09,12,18,07,23.00
2016,09,12,18,08,22.90
2016,09,12,18,09,22.90
2016,09,12,18,10,22.90
2016,09,12,18,11,22.90
2016,09,12,18,12,22.90
2016,09,12,18,13,22.90
2016,09,12,18,14,22.80
2016,09,12,18,15,22.80
2016,09,12,18,16,22.70
2016,09,12,18,17,22.70
2016,09,12,18,18,22.60
2016,09,12,18,19,22.60
2016,09,12,18,20,22.60
2016,09,12,18,21,22.50
2016,09,12,18,22,22.50
2016,09,12,18,23,22.60
2016,09,12,18,24,22.60
2016,09,12,18,25,22.60
2016,09,12,18,26,22.50
2016,09,12,18,27,22.50
2016,09,12,18,28,22.40
2016,09,12,18,29,22.30
2016,09,12,18,30,22.30
2016,09,12,18,31,22.30
2016,09,12,18,32,22.20
2016,09,12,18,33,22.20
2016,09,12,18,34,22.20
2016,09,12,18,35,22.20
2016,09,12,18,36,22.10
2016,09,12,18,37,22.10
2016,09,12,18,38,22.10
2016,09,12,18,39,22.00
2016,09,12,18,40,21.90
2016,09,12,18,41,21.90
2016,09,12,18,42,21.90
2016,09,12,18,43,21.80
2016,09,12,18,44,21.70
2016,09,12,18,45,21.60
2016,09,12,18,46,21.60
2016,09,12,18,47,21.50
2016,09,12,18,48,21.50
2016,09,12,18,49,21.40
2016,09,12,18,50,21.40
2016,09,12,18,51,21.30
2016,09,12,18,52,21.30
2016,09,12,18,53,21.20
2016,09,12,18,54,21.20
2016,09,12,18,55,21.10
2016,09,12,18,56,21.00
2016,09,12,18,57,20.90
2016,09,12,18,58,20.80
2016,09,12,18,59,20.70
2016,09,12,19,00,20.60
2016,09,12,19,01,20.50
2016,09,12,19,02,20.40
2016,09,12,19,03,20.30
2016,09,12,19,04,20.30
2016,09,12,19,05,20.20
2016,09,12,19,06,20.10
2016,09,12,19,07,20.10
2016,09,12,19,08,20.00
2016,09,12,19,09,20.00
2016,09,12,19,10,19.90
2016,09,12,19,11,19.80
2016,09,12,19,12,19.80
2016,09,12,19,13,19.80
2016,09,12,19,14,19.80
2016,09,12,19,15,19.70
2016,09,12,19,16,19.70
2016,09,12,19,17,19.70
2016,09,12,19,18,19.60
2016,09,12,19,19,19.60
2016,09,12,19,20,19.60
2016,09,12,19,21,19.50
2016,09,12,19,22,19.50
2016,09,12,19,23,19.40
2016,09,12,19,24,19.30
2016,09,12,19,25,19.30
2016,09,12,19,26,19.20
2016,09,12,19,27,19.20
2016,09,12,19,28,19.10
2016,09,12,19,29,19.10
2016,09,12,19,30,19.10
2016,09,12,19,31,19.00
2016,09,12,19,32,19.00
2016,09,12,19,33,18.90
2016,09,12,19,34,18.90
2016,09,12,19,35,18.80
2016,09,12,19,36,18.80
2016,09,12,19,37,18.80
2016,09,12,19,38,18.80
2016,09,12,19,39,18.70
2016,09,12,19,40,18.70
2016,09,12,19,41,18.70
2016,09,12,19,42,18.70
2016,09,12,19,43,18.60
2016,09,12,19,44,18.50
2016,09,12,19,45,18.50
2016,09,12,19,46,18.40
2016,09,12,19,47,18.30
2016,09,12,19,48,18.30
2016,09,12,19,49,18.20
2016,09,12,19,50,18.20
2016,09,12,19,51,18.10
2016,09,12,19,52,18.10
2016,09,12,19,53,18.00
2016,09,12,19,54,18.00
2016,09,12,19,55,18.00
2016,09,12,19,56,17.90
2016,09,12,19,57,17.90
2016,09,12,19,58,17.90
2016,09,12,19,59,17.90
2016,09,12,20,00,17.90
2016,09,12,20,01,17.80
2016,09,12,20,02,17.80
2016,09,12,20,03,17.80
2016,09,12,20,04,17.80
2016,09,12,20,05,17.70
2016,09,12,20,06,17.70
2016,09,12,20,07,17.60
2016,09,12,20,08,17.60
2016,09,12,20,09,17.50
2016,09,12,20,10,17.50
2016,09,12,20,11,17.40
2016,09,12,20,12,17.40
2016,09,12,20,13,17.40
2016,09,12,20,14,17.30
2016,09,12,20,15,17.30
2016,09,12,20,16,17.30
2016,09,12,20,17,17.30
2016,09,12,20,18,17.30
2016,09,12,20,19,17.20